sat.trackr.live / text

‹ back to catalog

IRIDIUM 167

NORAD 43931 · 2019-002K

PAYLOAD ACTIVE UNKNOWN

§ Identity

Operator
Country
US
Launch date
2019-01-11
Launch site
AFWTR
Launch vehicle
Mass (kg)
RCS (m²)

Purposes: comms

External: N2YO · Heavens-Above · Gunter

§ Orbital elements

Epoch: 2026-05-25T03:09:10.876032Z

Period
100.40 min
Inclination
86.3984°
Eccentricity
0.0002063
Mean motion
14.34218047 rev/d
Perigee alt
776.2 km
Apogee alt
779.1 km
Semi-major
7,155.8 km
B*
1.7158e-5
RAAN
3.2334°
Arg perigee
78.2117°
Mean anomaly
281.9310°
Rev number
38,565

§ Raw data

IRIDIUM 1671 43931U 19002K   26145.13137588  .00000068  00000+0  17158-4 0  99952 43931  86.3984   3.2334 0002063  78.2117 281.9310 14.34218047385657

JSON: /api/v1/satellites/43931 · /tle

For live sub-satellite position, see the globe view (requires WebGL).

§ Visibility from observer

Set your observer location to see the next 7 days of passes ≥ 10°. The values pass through the URL so the page stays shareable.

No JS? Fill the form by hand. The geolocation button needs JavaScript.